Time,TemperatureF,DewpointF,PressureIn,WindDirection,WindDirectionDegrees,WindSpeedMPH,WindSpeedGustMPH,Humidity,HourlyPrecipIn,Conditions,Clouds,dailyrainin,SoftwareType,DateUTC
2013-03-26 00:01:00,19.9,15.0,30.38,NW,304,0.0,0.0,81,0.00,,,0.00,WeatherCatV1.10B1784,2013-03-26 05:01:00,
2013-03-26 00:06:00,20.2,15.3,30.38,NW,304,0.0,2.0,81,0.00,,,0.00,WeatherCatV1.10B1784,2013-03-26 05:06:00,
2013-03-26 00:11:00,20.4,15.5,30.38,NW,304,0.0,0.0,81,0.00,,,0.00,WeatherCatV1.10B1784,2013-03-26 05:11:00,
2013-03-26 00:16:00,20.6,15.7,30.38,NW,304,2.0,2.0,81,0.00,,,0.00,WeatherCatV1.10B1784,2013-03-26 05:16:00,
2013-03-26 00:21:00,20.9,16.0,30.38,NW,304,0.0,0.0,81,0.00,,,0.00,WeatherCatV1.10B1784,2013-03-26 05:21:00,
2013-03-26 00:27:00,21.3,16.1,30.38,NW,304,0.0,2.0,80,0.00,,,0.00,WeatherCatV1.10B1784,2013-03-26 05:27:00,
2013-03-26 00:32:00,21.7,16.2,30.38,NW,304,0.0,1.0,79,0.00,,,0.00,WeatherCatV1.10B1784,2013-03-26 05:32:00,
2013-03-26 00:37:00,21.9,16.1,30.38,NW,304,1.0,2.0,78,0.00,,,0.00,WeatherCatV1.10B1784,2013-03-26 05:37:00,
2013-03-26 00:42:00,22.1,16.3,30.38,NW,304,0.0,0.0,78,0.00,,,0.00,WeatherCatV1.10B1784,2013-03-26 05:42:00,
2013-03-26 00:46:00,22.2,16.4,30.38,NW,304,0.0,1.0,78,0.00,,,0.00,WeatherCatV1.10B1784,2013-03-26 05:46:00,
2013-03-26 00:51:00,22.3,16.2,30.38,NW,304,1.0,1.0,77,0.00,,,0.00,WeatherCatV1.10B1784,2013-03-26 05:51:00,
2013-03-26 00:56:00,22.3,15.9,30.38,WNW,296,3.0,3.0,76,0.00,,,0.00,WeatherCatV1.10B1784,2013-03-26 05:56:00,
2013-03-26 01:01:00,22.4,16.0,30.38,WNW,296,2.0,6.0,76,0.00,,,0.00,WeatherCatV1.10B1784,2013-03-26 06:01:00,
2013-03-26 01:06:00,22.4,15.7,30.38,WNW,296,0.0,0.0,75,0.00,,,0.00,WeatherCatV1.10B1784,2013-03-26 06:06:00,
2013-03-26 01:12:00,22.4,15.7,30.38,WNW,282,0.0,4.0,75,0.00,,,0.00,WeatherCatV1.10B1784,2013-03-26 06:12:00,
2013-03-26 01:17:00,22.3,15.6,30.38,NNW,332,2.0,4.0,75,0.00,,,0.00,WeatherCatV1.10B1784,2013-03-26 06:17:00,
2013-03-26 01:22:00,22.3,15.6,30.38,NW,319,0.0,1.0,75,0.00,,,0.00,WeatherCatV1.10B1784,2013-03-26 06:22:00,
2013-03-26 01:27:00,22.3,15.6,30.38,WNW,301,2.0,4.0,75,0.00,,,0.00,WeatherCatV1.10B1784,2013-03-26 06:27:00,
2013-03-26 01:32:00,22.3,15.6,30.38,WNW,302,0.0,3.0,75,0.00,,,0.00,WeatherCatV1.10B1784,2013-03-26 06:32:00,
2013-03-26 01:37:00,22.1,15.7,30.38,WNW,302,0.0,2.0,76,0.00,,,0.00,WeatherCatV1.10B1784,2013-03-26 06:37:00,
2013-03-26 01:42:00,21.9,15.5,30.38,WNW,302,0.0,1.0,76,0.00,,,0.00,WeatherCatV1.10B1784,2013-03-26 06:42:00,
2013-03-26 01:47:00,21.7,15.3,30.38,WNW,285,0.0,2.0,76,0.00,,,0.00,WeatherCatV1.10B1784,2013-03-26 06:47:00,
2013-03-26 01:52:00,21.6,15.5,30.38,WNW,285,0.0,1.0,77,0.00,,,0.00,WeatherCatV1.10B1784,2013-03-26 06:52:00,
2013-03-26 01:57:00,21.5,15.4,30.39,WNW,285,0.0,2.0,77,0.00,,,0.00,WeatherCatV1.10B1784,2013-03-26 06:57:00,
2013-03-26 02:02:00,21.4,15.6,30.38,WNW,285,1.0,2.0,78,0.00,,,0.00,WeatherCatV1.10B1784,2013-03-26 07:02:00,
2013-03-26 02:07:00,21.3,15.5,30.39,WNW,285,0.0,1.0,78,0.00,,,0.00,WeatherCatV1.10B1784,2013-03-26 07:07:00,
2013-03-26 02:12:00,21.2,15.4,30.39,WNW,285,0.0,2.0,78,0.00,,,0.00,WeatherCatV1.10B1784,2013-03-26 07:12:00,
2013-03-26 02:17:00,21.1,15.6,30.39,WNW,287,1.0,4.0,79,0.00,,,0.00,WeatherCatV1.10B1784,2013-03-26 07:17:00,
2013-03-26 02:22:00,21.1,15.3,30.39,NW,311,2.0,2.0,78,0.00,,,0.00,WeatherCatV1.10B1784,2013-03-26 07:22:00,
2013-03-26 02:27:00,21.0,14.9,30.39,NW,311,0.0,2.0,77,0.00,,,0.00,WeatherCatV1.10B1784,2013-03-26 07:27:00,
2013-03-26 02:32:00,20.7,14.9,30.39,NNW,332,2.0,5.0,78,0.00,,,0.00,WeatherCatV1.10B1784,2013-03-26 07:32:00,
2013-03-26 02:37:00,20.2,14.8,30.38,NW,309,0.0,5.0,79,0.00,,,0.00,WeatherCatV1.10B1784,2013-03-26 07:37:00,
2013-03-26 02:42:00,19.8,14.6,30.38,NW,309,0.0,3.0,80,0.00,,,0.00,WeatherCatV1.10B1784,2013-03-26 07:42:00,
2013-03-26 02:47:00,19.4,14.3,30.38,NW,309,3.0,4.0,80,0.00,,,0.00,WeatherCatV1.10B1784,2013-03-26 07:47:00,
2013-03-26 02:52:00,19.1,14.2,30.38,NW,309,0.0,3.0,81,0.00,,,0.00,WeatherCatV1.10B1784,2013-03-26 07:52:00,
2013-03-26 02:57:00,18.8,14.0,30.38,NW,309,1.0,1.0,81,0.00,,,0.00,WeatherCatV1.10B1784,2013-03-26 07:57:00,
2013-03-26 03:02:00,18.4,13.8,30.38,NW,309,0.0,1.0,82,0.00,,,0.00,WeatherCatV1.10B1784,2013-03-26 08:02:00,
2013-03-26 03:07:00,18.1,13.5,30.38,NW,309,0.0,0.0,82,0.00,,,0.00,WeatherCatV1.10B1784,2013-03-26 08:07:00,
2013-03-26 03:12:00,17.9,13.6,30.38,NW,309,0.0,0.0,83,0.00,,,0.00,WeatherCatV1.10B1784,2013-03-26 08:12:00,
2013-03-26 03:17:00,17.5,13.2,30.38,NW,309,0.0,0.0,83,0.00,,,0.00,WeatherCatV1.10B1784,2013-03-26 08:17:00,
2013-03-26 03:22:00,17.2,13.2,30.38,NW,309,0.0,0.0,84,0.00,,,0.00,WeatherCatV1.10B1784,2013-03-26 08:22:00,
2013-03-26 03:27:00,17.0,13.0,30.38,NW,309,0.0,0.0,84,0.00,,,0.00,WeatherCatV1.10B1784,2013-03-26 08:27:00,
2013-03-26 03:32:00,16.7,12.7,30.38,NW,309,0.0,0.0,84,0.00,,,0.00,WeatherCatV1.10B1784,2013-03-26 08:32:00,
2013-03-26 03:37:00,16.4,12.7,30.38,NW,309,0.0,0.0,85,0.00,,,0.00,WeatherCatV1.10B1784,2013-03-26 08:37:00,
2013-03-26 03:42:00,16.2,12.5,30.38,NW,309,0.0,0.0,85,0.00,,,0.00,WeatherCatV1.10B1784,2013-03-26 08:42:00,
2013-03-26 03:47:00,16.0,12.6,30.38,NW,309,0.0,0.0,86,0.00,,,0.00,WeatherCatV1.10B1784,2013-03-26 08:47:00,
2013-03-26 03:52:00,15.9,12.5,30.38,NW,309,0.0,0.0,86,0.00,,,0.00,WeatherCatV1.10B1784,2013-03-26 08:52:00,
2013-03-26 03:57:00,15.8,12.4,30.38,NW,309,0.0,0.0,86,0.00,,,0.00,WeatherCatV1.10B1784,2013-03-26 08:57:00,
2013-03-26 04:02:00,15.5,12.1,30.37,NW,309,0.0,0.0,86,0.00,,,0.00,WeatherCatV1.10B1784,2013-03-26 09:02:00,
2013-03-26 04:07:00,15.3,11.9,30.37,NW,309,0.0,0.0,86,0.00,,,0.00,WeatherCatV1.10B1784,2013-03-26 09:07:00,
2013-03-26 04:12:00,15.0,11.8,30.38,NW,309,0.0,0.0,87,0.00,,,0.00,WeatherCatV1.10B1784,2013-03-26 09:12:00,
2013-03-26 04:17:00,14.8,11.6,30.38,NW,309,0.0,0.0,87,0.00,,,0.00,WeatherCatV1.10B1784,2013-03-26 09:17:00,
2013-03-26 04:22:00,14.5,11.4,30.38,NW,309,0.0,0.0,87,0.00,,,0.00,WeatherCatV1.10B1784,2013-03-26 09:22:00,
2013-03-26 04:27:00,14.3,11.2,30.37,NW,309,0.0,0.0,87,0.00,,,0.00,WeatherCatV1.10B1784,2013-03-26 09:27:00,
2013-03-26 04:32:00,14.1,11.0,30.37,NW,309,0.0,0.0,87,0.00,,,0.00,WeatherCatV1.10B1784,2013-03-26 09:32:00,
2013-03-26 04:37:00,13.8,10.7,30.37,NW,309,0.0,0.0,87,0.00,,,0.00,WeatherCatV1.10B1784,2013-03-26 09:37:00,
2013-03-26 04:42:00,13.5,10.4,30.37,NW,309,0.0,0.0,87,0.00,,,0.00,WeatherCatV1.10B1784,2013-03-26 09:42:00,
2013-03-26 04:47:00,13.2,10.1,30.37,NW,309,0.0,0.0,87,0.00,,,0.00,WeatherCatV1.10B1784,2013-03-26 09:47:00,
2013-03-26 04:52:00,13.0,10.1,30.37,NW,309,0.0,0.0,88,0.00,,,0.00,WeatherCatV1.10B1784,2013-03-26 09:52:00,
2013-03-26 04:57:00,12.8,9.9,30.37,NW,309,0.0,0.0,88,0.00,,,0.00,WeatherCatV1.10B1784,2013-03-26 09:57:00,
2013-03-26 05:02:00,12.7,10.1,30.37,NW,309,0.0,0.0,89,0.00,,,0.00,WeatherCatV1.10B1784,2013-03-26 10:02:00,
2013-03-26 05:07:00,12.7,10.1,30.37,NW,309,0.0,0.0,89,0.00,,,0.00,WeatherCatV1.10B1784,2013-03-26 10:07:00,
2013-03-26 05:12:00,12.6,10.0,30.37,NW,309,0.0,0.0,89,0.00,,,0.00,WeatherCatV1.10B1784,2013-03-26 10:12:00,
2013-03-26 05:17:00,12.5,9.9,30.37,NW,309,0.0,0.0,89,0.00,,,0.00,WeatherCatV1.10B1784,2013-03-26 10:17:00,
2013-03-26 05:22:00,12.3,9.7,30.38,NW,309,0.0,0.0,89,0.00,,,0.00,WeatherCatV1.10B1784,2013-03-26 10:22:00,
2013-03-26 05:27:00,12.3,9.7,30.38,NW,309,0.0,0.0,89,0.00,,,0.00,WeatherCatV1.10B1784,2013-03-26 10:27:00,
2013-03-26 05:32:00,12.3,9.9,30.37,NW,309,0.0,0.0,90,0.00,,,0.00,WeatherCatV1.10B1784,2013-03-26 10:32:00,
2013-03-26 05:37:00,12.2,9.6,30.38,NW,309,0.0,0.0,89,0.00,,,0.00,WeatherCatV1.10B1784,2013-03-26 10:37:00,
2013-03-26 05:42:00,11.9,9.3,30.38,NW,309,0.0,0.0,89,0.00,,,0.00,WeatherCatV1.10B1784,2013-03-26 10:42:00,
2013-03-26 05:47:00,11.8,9.4,30.38,NW,309,0.0,0.0,90,0.00,,,0.00,WeatherCatV1.10B1784,2013-03-26 10:47:00,
2013-03-26 05:52:00,11.8,9.4,30.38,NW,309,0.0,0.0,90,0.00,,,0.00,WeatherCatV1.10B1784,2013-03-26 10:52:00,
2013-03-26 05:57:00,11.7,9.3,30.38,NW,309,0.0,0.0,90,0.00,,,0.00,WeatherCatV1.10B1784,2013-03-26 10:57:00,
2013-03-26 06:02:00,11.6,9.0,30.38,NW,309,0.0,0.0,89,0.00,,,0.00,WeatherCatV1.10B1784,2013-03-26 11:02:00,
2013-03-26 06:07:00,11.4,9.0,30.38,NW,309,0.0,0.0,90,0.00,,,0.00,WeatherCatV1.10B1784,2013-03-26 11:07:00,
2013-03-26 06:12:00,11.3,9.0,30.38,NW,309,0.0,0.0,90,0.00,,,0.00,WeatherCatV1.10B1784,2013-03-26 11:12:00,
2013-03-26 06:17:00,11.2,8.9,30.38,NW,309,0.0,0.0,90,0.00,,,0.00,WeatherCatV1.10B1784,2013-03-26 11:17:00,
2013-03-26 06:22:00,11.1,8.8,30.38,NW,309,0.0,0.0,90,0.00,,,0.00,WeatherCatV1.10B1784,2013-03-26 11:22:00,
2013-03-26 06:27:00,10.9,8.3,30.38,NW,309,0.0,0.0,89,0.00,,,0.00,WeatherCatV1.10B1784,2013-03-26 11:27:00,
2013-03-26 06:32:00,10.7,8.1,30.38,NW,309,0.0,0.0,89,0.00,,,0.00,WeatherCatV1.10B1784,2013-03-26 11:32:00,
2013-03-26 06:37:00,10.5,7.9,30.38,NW,309,0.0,0.0,89,0.00,,,0.00,WeatherCatV1.10B1784,2013-03-26 11:37:00,
2013-03-26 06:42:00,10.4,7.8,30.38,NW,309,0.0,0.0,89,0.00,,,0.00,WeatherCatV1.10B1784,2013-03-26 11:42:00,
2013-03-26 06:47:00,10.3,8.0,30.38,NW,309,0.0,0.0,90,0.00,,,0.00,WeatherCatV1.10B1784,2013-03-26 11:47:00,
2013-03-26 06:52:00,10.2,7.9,30.38,NW,309,0.0,0.0,90,0.00,,,0.00,WeatherCatV1.10B1784,2013-03-26 11:52:00,
2013-03-26 06:57:00,10.1,7.8,30.38,NW,309,0.0,0.0,90,0.00,,,0.00,WeatherCatV1.10B1784,2013-03-26 11:57:00,
2013-03-26 07:02:00,10.1,7.8,30.39,NW,309,0.0,0.0,90,0.00,,,0.00,WeatherCatV1.10B1784,2013-03-26 12:02:00,
2013-03-26 07:07:00,10.0,7.7,30.39,NW,309,0.0,0.0,90,0.00,,,0.00,WeatherCatV1.10B1784,2013-03-26 12:07:00,
2013-03-26 07:12:00,9.9,7.3,30.39,NW,309,0.0,0.0,89,0.00,,,0.00,WeatherCatV1.10B1784,2013-03-26 12:12:00,
2013-03-26 07:17:00,9.7,7.1,30.39,NW,309,0.0,0.0,89,0.00,,,0.00,WeatherCatV1.10B1784,2013-03-26 12:17:00,
2013-03-26 07:22:00,9.5,6.9,30.39,NW,309,0.0,0.0,89,0.00,,,0.00,WeatherCatV1.10B1784,2013-03-26 12:22:00,
2013-03-26 07:27:00,9.5,6.9,30.39,NW,309,0.0,0.0,89,0.00,,,0.00,WeatherCatV1.10B1784,2013-03-26 12:27:00,
2013-03-26 07:32:00,9.4,6.8,30.39,NW,309,0.0,0.0,89,0.00,,,0.00,WeatherCatV1.10B1784,2013-03-26 12:32:00,
2013-03-26 07:37:00,9.4,7.1,30.39,NW,309,0.0,0.0,90,0.00,,,0.00,WeatherCatV1.10B1784,2013-03-26 12:37:00,
2013-03-26 07:42:00,9.4,7.1,30.39,NW,309,0.0,0.0,90,0.00,,,0.00,WeatherCatV1.10B1784,2013-03-26 12:42:00,
2013-03-26 07:47:00,9.4,7.1,30.39,NW,309,0.0,0.0,90,0.00,,,0.00,WeatherCatV1.10B1784,2013-03-26 12:47:00,
2013-03-26 07:52:00,9.6,7.3,30.39,NW,309,0.0,0.0,90,0.00,,,0.00,WeatherCatV1.10B1784,2013-03-26 12:52:00,
2013-03-26 07:57:00,10.0,7.9,30.39,NW,309,0.0,0.0,91,0.00,,,0.00,WeatherCatV1.10B1784,2013-03-26 12:57:00,
2013-03-26 08:02:00,10.7,8.8,30.39,NW,309,0.0,0.0,92,0.00,,,0.00,WeatherCatV1.10B1784,2013-03-26 13:02:00,
2013-03-26 08:07:00,11.4,9.8,30.40,NW,309,0.0,1.0,93,0.00,,,0.00,WeatherCatV1.10B1784,2013-03-26 13:07:00,
2013-03-26 08:12:00,12.1,10.5,30.40,NW,309,0.0,0.0,93,0.00,,,0.00,WeatherCatV1.10B1784,2013-03-26 13:12:00,
2013-03-26 08:17:00,12.6,10.7,30.40,NW,309,0.0,0.0,92,0.00,,,0.00,WeatherCatV1.10B1784,2013-03-26 13:17:00,
2013-03-26 08:22:00,13.0,11.1,30.40,NW,309,0.0,1.0,92,0.00,,,0.00,WeatherCatV1.10B1784,2013-03-26 13:22:00,
2013-03-26 08:27:00,13.5,11.6,30.40,NW,309,0.0,0.0,92,0.00,,,0.00,WeatherCatV1.10B1784,2013-03-26 13:27:00,
2013-03-26 08:32:00,13.9,12.0,30.40,NW,309,0.0,2.0,92,0.00,,,0.00,WeatherCatV1.10B1784,2013-03-26 13:32:00,
2013-03-26 08:37:00,14.3,12.2,30.40,NW,309,0.0,0.0,91,0.00,,,0.00,WeatherCatV1.10B1784,2013-03-26 13:37:00,
2013-03-26 08:42:00,14.6,12.5,30.40,NW,309,0.0,0.0,91,0.00,,,0.00,WeatherCatV1.10B1784,2013-03-26 13:42:00,
2013-03-26 08:47:00,15.0,12.9,30.40,NW,309,0.0,0.0,91,0.00,,,0.00,WeatherCatV1.10B1784,2013-03-26 13:47:00,
2013-03-26 08:52:00,15.3,13.2,30.40,NW,309,0.0,0.0,91,0.00,,,0.00,WeatherCatV1.10B1784,2013-03-26 13:52:00,
2013-03-26 08:57:00,15.5,13.4,30.40,NW,309,0.0,0.0,91,0.00,,,0.00,WeatherCatV1.10B1784,2013-03-26 13:57:00,
2013-03-26 09:02:00,15.8,13.6,30.40,NW,309,0.0,1.0,91,0.00,,,0.00,WeatherCatV1.10B1784,2013-03-26 14:02:00,
2013-03-26 09:07:00,16.3,14.1,30.40,NW,309,0.0,0.0,91,0.00,,,0.00,WeatherCatV1.10B1784,2013-03-26 14:07:00,
2013-03-26 09:12:00,16.9,14.7,30.40,NW,309,1.0,1.0,91,0.00,,,0.00,WeatherCatV1.10B1784,2013-03-26 14:12:00,
2013-03-26 09:17:00,17.6,15.4,30.40,NW,309,0.0,1.0,91,0.00,,,0.00,WeatherCatV1.10B1784,2013-03-26 14:17:00,
2013-03-26 09:22:00,18.7,16.5,30.40,NW,309,0.0,1.0,91,0.00,,,0.00,WeatherCatV1.10B1784,2013-03-26 14:22:00,
2013-03-26 09:27:00,19.1,15.9,30.40,NW,309,0.0,0.0,87,0.00,,,0.00,WeatherCatV1.10B1784,2013-03-26 14:27:00,
2013-03-26 09:32:00,19.7,16.2,30.40,NW,309,1.0,1.0,86,0.00,,,0.00,WeatherCatV1.10B1784,2013-03-26 14:32:00,
2013-03-26 09:37:00,20.0,15.7,30.40,NW,309,1.0,3.0,83,0.00,,,0.00,WeatherCatV1.10B1784,2013-03-26 14:37:00,
2013-03-26 09:42:00,20.3,15.7,30.40,NW,309,0.0,1.0,82,0.00,,,0.00,WeatherCatV1.10B1784,2013-03-26 14:42:00,
2013-03-26 09:47:00,21.1,16.5,30.40,NW,315,0.0,3.0,82,0.00,,,0.00,WeatherCatV1.10B1784,2013-03-26 14:47:00,
2013-03-26 09:52:00,21.7,16.5,30.40,NW,314,0.0,1.0,80,0.00,,,0.00,WeatherCatV1.10B1784,2013-03-26 14:52:00,
2013-03-26 09:57:00,22.0,16.2,30.40,NW,315,0.0,3.0,78,0.00,,,0.00,WeatherCatV1.10B1784,2013-03-26 14:57:00,
2013-03-26 10:02:00,22.1,16.3,30.40,NW,322,2.0,3.0,78,0.00,,,0.00,WeatherCatV1.10B1784,2013-03-26 15:02:00,
2013-03-26 10:07:00,22.2,16.1,30.40,WNW,291,1.0,3.0,77,0.00,,,0.00,WeatherCatV1.10B1784,2013-03-26 15:07:00,
2013-03-26 10:12:00,22.5,16.4,30.40,WNW,291,2.0,3.0,77,0.00,,,0.00,WeatherCatV1.10B1784,2013-03-26 15:12:00,
2013-03-26 10:17:00,23.1,16.7,30.39,WNW,291,0.0,1.0,76,0.00,,,0.00,WeatherCatV1.10B1784,2013-03-26 15:17:00,
2013-03-26 10:22:00,23.4,16.7,30.39,SW,226,0.0,3.0,75,0.00,,,0.00,WeatherCatV1.10B1784,2013-03-26 15:22:00,
2013-03-26 10:27:00,23.9,16.8,30.39,SW,227,0.0,2.0,74,0.00,,,0.00,WeatherCatV1.10B1784,2013-03-26 15:27:00,
2013-03-26 10:32:00,24.4,16.7,30.39,West,260,0.0,4.0,72,0.00,,,0.00,WeatherCatV1.10B1784,2013-03-26 15:32:00,
2013-03-26 10:37:00,24.0,16.6,30.39,West,266,0.0,2.0,73,0.00,,,0.00,WeatherCatV1.10B1784,2013-03-26 15:37:00,
2013-03-26 10:42:00,23.8,16.1,30.39,WNW,282,0.0,4.0,72,0.00,,,0.00,WeatherCatV1.10B1784,2013-03-26 15:42:00,
2013-03-26 10:47:00,24.1,16.7,30.39,NNW,337,0.0,3.0,73,0.00,,,0.00,WeatherCatV1.10B1784,2013-03-26 15:47:00,
2013-03-26 10:52:00,24.3,16.6,30.40,WNW,297,0.0,5.0,72,0.00,,,0.00,WeatherCatV1.10B1784,2013-03-26 15:52:00,
2013-03-26 10:57:00,24.0,16.0,30.40,NW,310,1.0,5.0,71,0.00,,,0.00,WeatherCatV1.10B1784,2013-03-26 15:57:00,
2013-03-26 11:02:00,23.6,15.9,30.40,West,265,1.0,5.0,72,0.00,,,0.00,WeatherCatV1.10B1784,2013-03-26 16:02:00,
2013-03-26 11:07:00,23.6,15.9,30.39,NNW,340,0.0,2.0,72,0.00,,,0.00,WeatherCatV1.10B1784,2013-03-26 16:07:00,
2013-03-26 11:12:00,24.1,16.7,30.39,NNW,328,0.0,0.0,73,0.00,,,0.00,WeatherCatV1.10B1784,2013-03-26 16:12:00,
2013-03-26 11:17:00,24.9,16.9,30.39,NNW,328,0.0,2.0,71,0.00,,,0.00,WeatherCatV1.10B1784,2013-03-26 16:17:00,
2013-03-26 11:22:00,25.7,17.6,30.39,NNW,328,0.0,3.0,71,0.00,,,0.00,WeatherCatV1.10B1784,2013-03-26 16:22:00,
2013-03-26 11:27:00,26.1,17.3,30.39,WNW,299,2.0,4.0,69,0.00,,,0.00,WeatherCatV1.10B1784,2013-03-26 16:27:00,
2013-03-26 11:32:00,26.0,17.2,30.39,WNW,299,3.0,4.0,69,0.00,,,0.00,WeatherCatV1.10B1784,2013-03-26 16:32:00,
2013-03-26 11:37:00,25.7,17.0,30.38,NW,316,1.0,3.0,69,0.00,,,0.00,WeatherCatV1.10B1784,2013-03-26 16:37:00,
2013-03-26 11:42:00,25.4,16.7,30.39,WNW,298,3.0,3.0,69,0.00,,,0.00,WeatherCatV1.10B1784,2013-03-26 16:42:00,
2013-03-26 11:47:00,25.4,17.0,30.39,WNW,301,0.0,1.0,70,0.00,,,0.00,WeatherCatV1.10B1784,2013-03-26 16:47:00,
2013-03-26 11:52:00,25.8,17.4,30.39,SSW,207,0.0,4.0,70,0.00,,,0.00,WeatherCatV1.10B1784,2013-03-26 16:52:00,
2013-03-26 11:57:00,26.1,17.0,30.38,SW,218,0.0,1.0,68,0.00,,,0.00,WeatherCatV1.10B1784,2013-03-26 16:57:00,
2013-03-26 12:02:00,26.2,17.4,30.38,SW,220,0.0,0.0,69,0.00,,,0.00,WeatherCatV1.10B1784,2013-03-26 17:02:00,
2013-03-26 12:07:00,27.0,18.2,30.38,WNW,286,0.0,2.0,69,0.00,,,0.00,WeatherCatV1.10B1784,2013-03-26 17:07:00,
2013-03-26 12:12:00,27.8,18.3,30.38,SSE,155,0.0,5.0,67,0.00,,,0.00,WeatherCatV1.10B1784,2013-03-26 17:12:00,
2013-03-26 12:17:00,27.9,18.0,30.38,South,178,1.0,2.0,66,0.00,,,0.00,WeatherCatV1.10B1784,2013-03-26 17:17:00,
2013-03-26 12:22:00,28.5,19.0,30.38,SSE,164,1.0,4.0,67,0.00,,,0.00,WeatherCatV1.10B1784,2013-03-26 17:22:00,
2013-03-26 12:27:00,29.2,20.3,30.38,SSE,164,0.0,2.0,69,0.00,,,0.00,WeatherCatV1.10B1784,2013-03-26 17:27:00,
2013-03-26 12:32:00,29.4,19.1,30.38,SSW,210,3.0,3.0,65,0.00,,,0.00,WeatherCatV1.10B1784,2013-03-26 17:32:00,
2013-03-26 12:37:00,29.5,19.2,30.38,SSW,207,2.0,2.0,65,0.00,,,0.00,WeatherCatV1.10B1784,2013-03-26 17:37:00,
2013-03-26 12:42:00,29.4,19.5,30.37,WNW,298,0.0,1.0,66,0.00,,,0.00,WeatherCatV1.10B1784,2013-03-26 17:42:00,
2013-03-26 12:47:00,29.6,18.9,30.37,WNW,286,0.0,2.0,64,0.00,,,0.00,WeatherCatV1.10B1784,2013-03-26 17:47:00,
2013-03-26 12:52:00,30.1,19.8,30.37,WNW,287,1.0,2.0,65,0.00,,,0.00,WeatherCatV1.10B1784,2013-03-26 17:52:00,
2013-03-26 12:57:00,30.3,20.3,30.37,West,259,1.0,2.0,66,0.00,,,0.00,WeatherCatV1.10B1784,2013-03-26 17:57:00,
2013-03-26 13:02:00,30.9,19.8,30.37,SE,127,0.0,0.0,63,0.00,,,0.00,WeatherCatV1.10B1784,2013-03-26 18:02:00,
2013-03-26 13:07:00,31.8,20.7,30.37,SE,146,3.0,3.0,63,0.00,,,0.00,WeatherCatV1.10B1784,2013-03-26 18:07:00,
2013-03-26 13:12:00,31.5,20.0,30.36,South,186,0.0,3.0,62,0.00,,,0.00,WeatherCatV1.10B1784,2013-03-26 18:12:00,
2013-03-26 13:17:00,31.5,20.4,30.36,SSE,147,0.0,3.0,63,0.00,,,0.00,WeatherCatV1.10B1784,2013-03-26 18:17:00,
2013-03-26 13:22:00,32.1,22.0,30.36,SE,130,5.0,6.0,66,0.00,,,0.00,WeatherCatV1.10B1784,2013-03-26 18:22:00,
2013-03-26 13:27:00,31.9,21.1,30.36,SE,126,1.0,4.0,64,0.00,,,0.00,WeatherCatV1.10B1784,2013-03-26 18:27:00,
2013-03-26 13:32:00,32.1,20.9,30.35,SE,138,1.0,8.0,63,0.00,,,0.00,WeatherCatV1.10B1784,2013-03-26 18:32:00,
2013-03-26 13:37:00,32.3,20.8,30.35,WNW,300,1.0,3.0,62,0.00,,,0.00,WeatherCatV1.10B1784,2013-03-26 18:37:00,
2013-03-26 13:42:00,31.7,19.4,30.35,NW,308,0.0,5.0,60,0.00,,,0.00,WeatherCatV1.10B1784,2013-03-26 18:42:00,
2013-03-26 13:47:00,31.9,21.5,30.35,ESE,109,3.0,3.0,65,0.00,,,0.00,WeatherCatV1.10B1784,2013-03-26 18:47:00,
2013-03-26 13:52:00,32.3,20.8,30.35,SE,143,0.0,0.0,62,0.00,,,0.00,WeatherCatV1.10B1784,2013-03-26 18:52:00,
2013-03-26 13:57:00,33.0,21.8,30.35,SE,137,1.0,7.0,63,0.00,,,0.00,WeatherCatV1.10B1784,2013-03-26 18:57:00,
2013-03-26 14:02:00,33.4,22.6,30.35,ESE,123,0.0,5.0,64,0.00,,,0.00,WeatherCatV1.10B1784,2013-03-26 19:02:00,
2013-03-26 14:07:00,33.7,21.7,30.34,SSE,155,0.0,6.0,61,0.00,,,0.00,WeatherCatV1.10B1784,2013-03-26 19:07:00,
2013-03-26 14:12:00,33.5,21.5,30.34,South,184,0.0,5.0,61,0.00,,,0.00,WeatherCatV1.10B1784,2013-03-26 19:12:00,
2013-03-26 14:17:00,33.7,22.5,30.34,SE,145,0.0,0.0,63,0.00,,,0.00,WeatherCatV1.10B1784,2013-03-26 19:17:00,
2013-03-26 14:22:00,34.2,21.8,30.34,SE,142,1.0,2.0,60,0.00,,,0.00,WeatherCatV1.10B1784,2013-03-26 19:22:00,
2013-03-26 14:27:00,34.4,21.6,30.33,ESE,109,0.0,5.0,59,0.00,,,0.00,WeatherCatV1.10B1784,2013-03-26 19:27:00,
2013-03-26 14:32:00,34.6,22.6,30.33,SE,141,3.0,3.0,61,0.00,,,0.00,WeatherCatV1.10B1784,2013-03-26 19:32:00,
2013-03-26 14:37:00,34.8,21.5,30.33,SE,146,3.0,7.0,58,0.00,,,0.00,WeatherCatV1.10B1784,2013-03-26 19:37:00,
2013-03-26 14:42:00,34.8,22.3,30.33,SE,126,3.0,6.0,60,0.00,,,0.00,WeatherCatV1.10B1784,2013-03-26 19:42:00,
2013-03-26 14:47:00,34.7,21.9,30.33,South,185,1.0,2.0,59,0.00,,,0.00,WeatherCatV1.10B1784,2013-03-26 19:47:00,
2013-03-26 14:52:00,34.6,21.8,30.32,East,99,5.0,8.0,59,0.00,,,0.00,WeatherCatV1.10B1784,2013-03-26 19:52:00,
2013-03-26 14:57:00,34.6,22.6,30.32,SE,134,0.0,4.0,61,0.00,,,0.00,WeatherCatV1.10B1784,2013-03-26 19:57:00,
2013-03-26 15:02:00,35.1,22.6,30.32,SE,126,1.0,4.0,60,0.00,,,0.00,WeatherCatV1.10B1784,2013-03-26 20:02:00,
2013-03-26 15:07:00,35.2,23.1,30.32,ESE,122,1.0,4.0,61,0.00,,,0.00,WeatherCatV1.10B1784,2013-03-26 20:07:00,
2013-03-26 15:12:00,35.4,23.3,30.32,ESE,118,0.0,2.0,61,0.00,,,0.00,WeatherCatV1.10B1784,2013-03-26 20:12:00,
2013-03-26 15:17:00,36.1,23.6,30.31,ESE,107,1.0,2.0,60,0.00,,,0.00,WeatherCatV1.10B1784,2013-03-26 20:17:00,
2013-03-26 15:22:00,36.7,23.3,30.31,SSE,147,3.0,4.0,58,0.00,,,0.00,WeatherCatV1.10B1784,2013-03-26 20:22:00,
2013-03-26 15:27:00,36.6,22.8,30.31,SE,131,6.0,7.0,57,0.00,,,0.00,WeatherCatV1.10B1784,2013-03-26 20:27:00,
2013-03-26 15:32:00,36.0,22.7,30.31,SE,124,4.0,6.0,58,0.00,,,0.00,WeatherCatV1.10B1784,2013-03-26 20:32:00,
2013-03-26 15:37:00,36.4,23.9,30.31,SE,127,1.0,5.0,60,0.00,,,0.00,WeatherCatV1.10B1784,2013-03-26 20:37:00,
2013-03-26 15:42:00,36.6,22.0,30.30,SSE,153,0.0,1.0,55,0.00,,,0.00,WeatherCatV1.10B1784,2013-03-26 20:42:00,
2013-03-26 15:47:00,37.1,23.7,30.30,ESE,120,1.0,5.0,58,0.00,,,0.00,WeatherCatV1.10B1784,2013-03-26 20:47:00,
2013-03-26 15:52:00,37.5,23.7,30.30,ESE,117,3.0,7.0,57,0.00,,,0.00,WeatherCatV1.10B1784,2013-03-26 20:52:00,
2013-03-26 15:57:00,37.7,24.3,30.30,ESE,121,3.0,3.0,58,0.00,,,0.00,WeatherCatV1.10B1784,2013-03-26 20:57:00,
2013-03-26 16:02:00,37.7,23.4,30.30,SE,125,4.0,4.0,56,0.00,,,0.00,WeatherCatV1.10B1784,2013-03-26 21:02:00,
2013-03-26 16:07:00,37.2,22.5,30.30,SE,144,3.0,5.0,55,0.00,,,0.00,WeatherCatV1.10B1784,2013-03-26 21:07:00,
2013-03-26 16:12:00,37.0,23.2,30.29,ESE,114,2.0,5.0,57,0.00,,,0.00,WeatherCatV1.10B1784,2013-03-26 21:12:00,
2013-03-26 16:17:00,37.4,22.7,30.29,SSE,148,3.0,5.0,55,0.00,,,0.00,WeatherCatV1.10B1784,2013-03-26 21:17:00,
2013-03-26 16:22:00,37.4,22.3,30.29,SE,135,3.0,7.0,54,0.00,,,0.00,WeatherCatV1.10B1784,2013-03-26 21:22:00,
2013-03-26 16:27:00,36.6,22.8,30.29,SE,131,0.0,5.0,57,0.00,,,0.00,WeatherCatV1.10B1784,2013-03-26 21:27:00,
2013-03-26 16:32:00,37.0,22.4,30.29,ESE,113,0.0,5.0,55,0.00,,,0.00,WeatherCatV1.10B1784,2013-03-26 21:32:00,
2013-03-26 16:37:00,37.2,22.5,30.29,SE,128,3.0,3.0,55,0.00,,,0.00,WeatherCatV1.10B1784,2013-03-26 21:37:00,
2013-03-26 16:42:00,37.5,23.2,30.29,SSE,151,0.0,3.0,56,0.00,,,0.00,WeatherCatV1.10B1784,2013-03-26 21:42:00,
2013-03-26 16:47:00,38.0,23.3,30.28,ESE,122,1.0,4.0,55,0.00,,,0.00,WeatherCatV1.10B1784,2013-03-26 21:47:00,
2013-03-26 16:52:00,38.0,22.9,30.28,ESE,119,1.0,3.0,54,0.00,,,0.00,WeatherCatV1.10B1784,2013-03-26 21:52:00,
2013-03-26 16:57:00,38.3,22.7,30.28,SE,141,3.0,6.0,53,0.00,,,0.00,WeatherCatV1.10B1784,2013-03-26 21:57:00,
2013-03-26 17:02:00,38.0,22.4,30.28,ESE,121,2.0,5.0,53,0.00,,,0.00,WeatherCatV1.10B1784,2013-03-26 22:02:00,
2013-03-26 17:07:00,38.1,22.5,30.28,SE,132,0.0,2.0,53,0.00,,,0.00,WeatherCatV1.10B1784,2013-03-26 22:07:00,
2013-03-26 17:12:00,38.3,23.1,30.28,SE,132,0.0,2.0,54,0.00,,,0.00,WeatherCatV1.10B1784,2013-03-26 22:12:00,
2013-03-26 17:17:00,38.5,22.9,30.28,SE,137,0.0,4.0,53,0.00,,,0.00,WeatherCatV1.10B1784,2013-03-26 22:17:00,
2013-03-26 17:22:00,38.3,22.7,30.27,SE,138,0.0,4.0,53,0.00,,,0.00,WeatherCatV1.10B1784,2013-03-26 22:22:00,
2013-03-26 17:27:00,38.1,22.0,30.27,SE,127,0.0,4.0,52,0.00,,,0.00,WeatherCatV1.10B1784,2013-03-26 22:27:00,
2013-03-26 17:32:00,37.9,22.8,30.28,SE,127,0.0,3.0,54,0.00,,,0.00,WeatherCatV1.10B1784,2013-03-26 22:32:00,
2013-03-26 17:37:00,38.0,22.4,30.27,ESE,118,4.0,5.0,53,0.00,,,0.00,WeatherCatV1.10B1784,2013-03-26 22:37:00,
2013-03-26 17:42:00,37.7,22.1,30.27,SE,124,0.0,2.0,53,0.00,,,0.00,WeatherCatV1.10B1784,2013-03-26 22:42:00,
2013-03-26 17:47:00,37.4,22.3,30.27,SE,125,2.0,3.0,54,0.00,,,0.00,WeatherCatV1.10B1784,2013-03-26 22:47:00,
2013-03-26 17:52:00,37.4,21.9,30.27,SE,129,0.0,0.0,53,0.00,,,0.00,WeatherCatV1.10B1784,2013-03-26 22:52:00,
2013-03-26 17:57:00,37.2,22.5,30.27,SE,129,1.0,2.0,55,0.00,,,0.00,WeatherCatV1.10B1784,2013-03-26 22:57:00,
2013-03-26 18:02:00,37.0,22.8,30.27,ESE,121,1.0,6.0,56,0.00,,,0.00,WeatherCatV1.10B1784,2013-03-26 23:02:00,
2013-03-26 18:07:00,36.8,22.6,30.26,SE,129,0.0,2.0,56,0.00,,,0.00,WeatherCatV1.10B1784,2013-03-26 23:07:00,
2013-03-26 18:12:00,36.8,22.6,30.26,SE,129,1.0,2.0,56,0.00,,,0.00,WeatherCatV1.10B1784,2013-03-26 23:12:00,
2013-03-26 18:17:00,36.5,21.9,30.27,SE,139,6.0,6.0,55,0.00,,,0.00,WeatherCatV1.10B1784,2013-03-26 23:17:00,
2013-03-26 18:22:00,36.1,21.9,30.27,SE,134,1.0,3.0,56,0.00,,,0.00,WeatherCatV1.10B1784,2013-03-26 23:22:00,
2013-03-26 18:27:00,36.1,22.4,30.26,ESE,106,3.0,5.0,57,0.00,,,0.00,WeatherCatV1.10B1784,2013-03-26 23:27:00,
2013-03-26 18:32:00,36.1,22.4,30.26,SE,133,4.0,7.0,57,0.00,,,0.00,WeatherCatV1.10B1784,2013-03-26 23:32:00,
2013-03-26 18:37:00,35.9,22.2,30.27,SSE,148,2.0,4.0,57,0.00,,,0.00,WeatherCatV1.10B1784,2013-03-26 23:37:00,
2013-03-26 18:42:00,35.7,22.0,30.26,SE,140,4.0,4.0,57,0.00,,,0.00,WeatherCatV1.10B1784,2013-03-26 23:42:00,
2013-03-26 18:47:00,35.6,21.9,30.26,ESE,117,0.0,5.0,57,0.00,,,0.00,WeatherCatV1.10B1784,2013-03-26 23:47:00,
2013-03-26 18:52:00,35.4,22.1,30.26,ESE,118,0.0,3.0,58,0.00,,,0.00,WeatherCatV1.10B1784,2013-03-26 23:52:00,
2013-03-26 18:57:00,35.1,21.4,30.26,SE,137,3.0,5.0,57,0.00,,,0.00,WeatherCatV1.10B1784,2013-03-26 23:57:00,
2013-03-26 19:02:00,34.7,21.5,30.26,SE,131,3.0,8.0,58,0.00,,,0.00,WeatherCatV1.10B1784,2013-03-27 00:02:00,
2013-03-26 19:07:00,34.4,21.6,30.26,ESE,106,3.0,4.0,59,0.00,,,0.00,WeatherCatV1.10B1784,2013-03-27 00:07:00,
2013-03-26 19:12:00,34.2,21.4,30.26,SE,132,3.0,5.0,59,0.00,,,0.00,WeatherCatV1.10B1784,2013-03-27 00:12:00,
2013-03-26 19:17:00,33.9,21.1,30.26,SE,144,4.0,5.0,59,0.00,,,0.00,WeatherCatV1.10B1784,2013-03-27 00:17:00,
2013-03-26 19:22:00,33.7,21.3,30.26,SE,138,1.0,2.0,60,0.00,,,0.00,WeatherCatV1.10B1784,2013-03-27 00:22:00,
2013-03-26 19:27:00,33.5,20.7,30.26,ESE,120,1.0,2.0,59,0.00,,,0.00,WeatherCatV1.10B1784,2013-03-27 00:27:00,
2013-03-26 19:32:00,33.3,20.9,30.26,SE,126,2.0,4.0,60,0.00,,,0.00,WeatherCatV1.10B1784,2013-03-27 00:32:00,
2013-03-26 19:37:00,33.2,20.8,30.27,ESE,122,3.0,3.0,60,0.00,,,0.00,WeatherCatV1.10B1784,2013-03-27 00:37:00,
2013-03-26 19:42:00,33.0,21.0,30.26,ESE,122,0.0,1.0,61,0.00,,,0.00,WeatherCatV1.10B1784,2013-03-27 00:42:00,
2013-03-26 19:47:00,32.8,21.2,30.26,ESE,122,0.0,1.0,62,0.00,,,0.00,WeatherCatV1.10B1784,2013-03-27 00:47:00,
2013-03-26 19:52:00,32.6,21.4,30.26,ESE,122,0.0,2.0,63,0.00,,,0.00,WeatherCatV1.10B1784,2013-03-27 00:52:00,
2013-03-26 19:57:00,32.5,21.3,30.26,ESE,122,0.0,3.0,63,0.00,,,0.00,WeatherCatV1.10B1784,2013-03-27 00:57:00,
2013-03-26 20:02:00,32.4,21.6,30.27,ESE,122,0.0,2.0,64,0.00,,,0.00,WeatherCatV1.10B1784,2013-03-27 01:02:00,
2013-03-26 20:07:00,32.3,21.5,30.27,ESE,122,0.0,2.0,64,0.00,,,0.00,WeatherCatV1.10B1784,2013-03-27 01:07:00,
2013-03-26 20:12:00,32.2,21.4,30.26,ESE,122,0.0,1.0,64,0.00,,,0.00,WeatherCatV1.10B1784,2013-03-27 01:12:00,
2013-03-26 20:17:00,32.1,21.7,30.27,ESE,122,0.0,2.0,65,0.00,,,0.00,WeatherCatV1.10B1784,2013-03-27 01:17:00,
2013-03-26 20:22:00,32.1,21.7,30.27,ESE,122,0.0,0.0,65,0.00,,,0.00,WeatherCatV1.10B1784,2013-03-27 01:22:00,
2013-03-26 20:27:00,32.1,22.0,30.27,ESE,119,0.0,2.0,66,0.00,,,0.00,WeatherCatV1.10B1784,2013-03-27 01:27:00,
2013-03-26 20:32:00,32.1,22.0,30.27,ESE,116,0.0,4.0,66,0.00,,,0.00,WeatherCatV1.10B1784,2013-03-27 01:32:00,
2013-03-26 20:37:00,32.1,22.4,30.27,ESE,116,0.0,1.0,67,0.00,,,0.00,WeatherCatV1.10B1784,2013-03-27 01:37:00,
2013-03-26 20:42:00,31.9,22.2,30.28,ESE,116,1.0,1.0,67,0.00,,,0.00,WeatherCatV1.10B1784,2013-03-27 01:42:00,
2013-03-26 20:47:00,31.8,22.5,30.28,ESE,116,0.0,2.0,68,0.00,,,0.00,WeatherCatV1.10B1784,2013-03-27 01:47:00,
2013-03-26 20:52:00,31.7,22.4,30.28,SE,128,1.0,3.0,68,0.00,,,0.00,WeatherCatV1.10B1784,2013-03-27 01:52:00,
2013-03-26 20:57:00,31.6,22.6,30.28,ESE,122,0.0,3.0,69,0.00,,,0.00,WeatherCatV1.10B1784,2013-03-27 01:57:00,
2013-03-26 21:02:00,31.6,22.6,30.28,ESE,123,0.0,3.0,69,0.00,,,0.00,WeatherCatV1.10B1784,2013-03-27 02:02:00,
2013-03-26 21:07:00,31.5,22.9,30.28,ESE,114,3.0,4.0,70,0.00,,,0.00,WeatherCatV1.10B1784,2013-03-27 02:07:00,
2013-03-26 21:12:00,31.5,22.9,30.28,SE,133,0.0,2.0,70,0.00,,,0.00,WeatherCatV1.10B1784,2013-03-27 02:12:00,
2013-03-26 21:17:00,31.4,22.8,30.28,SE,133,0.0,1.0,70,0.00,,,0.00,WeatherCatV1.10B1784,2013-03-27 02:17:00,
2013-03-26 21:22:00,31.2,22.6,30.28,ESE,114,2.0,5.0,70,0.00,,,0.00,WeatherCatV1.10B1784,2013-03-27 02:22:00,
2013-03-26 21:27:00,31.2,22.6,30.28,ESE,114,1.0,3.0,70,0.00,,,0.00,WeatherCatV1.10B1784,2013-03-27 02:27:00,
2013-03-26 21:32:00,31.1,22.8,30.28,SE,141,0.0,1.0,71,0.00,,,0.00,WeatherCatV1.10B1784,2013-03-27 02:32:00,
2013-03-26 21:37:00,31.1,22.8,30.28,SE,141,0.0,1.0,71,0.00,,,0.00,WeatherCatV1.10B1784,2013-03-27 02:37:00,
2013-03-26 21:42:00,31.1,22.8,30.28,SE,141,0.0,3.0,71,0.00,,,0.00,WeatherCatV1.10B1784,2013-03-27 02:42:00,
2013-03-26 21:47:00,31.0,22.7,30.28,SE,141,1.0,2.0,71,0.00,,,0.00,WeatherCatV1.10B1784,2013-03-27 02:47:00,
2013-03-26 21:52:00,31.0,22.7,30.28,ESE,116,0.0,1.0,71,0.00,,,0.00,WeatherCatV1.10B1784,2013-03-27 02:52:00,
2013-03-26 21:57:00,30.9,22.6,30.29,ESE,116,0.0,2.0,71,0.00,,,0.00,WeatherCatV1.10B1784,2013-03-27 02:57:00,
2013-03-26 22:02:00,30.8,22.5,30.29,ESE,116,0.0,0.0,71,0.00,,,0.00,WeatherCatV1.10B1784,2013-03-27 03:02:00,
2013-03-26 22:07:00,30.7,22.8,30.29,ESE,116,1.0,2.0,72,0.00,,,0.00,WeatherCatV1.10B1784,2013-03-27 03:07:00,
2013-03-26 22:12:00,30.7,22.8,30.29,ESE,114,0.0,3.0,72,0.00,,,0.00,WeatherCatV1.10B1784,2013-03-27 03:12:00,
2013-03-26 22:17:00,30.7,22.8,30.29,ESE,114,0.0,1.0,72,0.00,,,0.00,WeatherCatV1.10B1784,2013-03-27 03:17:00,
2013-03-26 22:22:00,30.6,22.7,30.29,ESE,114,3.0,3.0,72,0.00,,,0.00,WeatherCatV1.10B1784,2013-03-27 03:22:00,
2013-03-26 22:27:00,30.5,22.6,30.29,SSE,149,0.0,3.0,72,0.00,,,0.00,WeatherCatV1.10B1784,2013-03-27 03:27:00,
2013-03-26 22:32:00,30.4,22.5,30.29,SSE,149,0.0,1.0,72,0.00,,,0.00,WeatherCatV1.10B1784,2013-03-27 03:32:00,
2013-03-26 22:37:00,30.4,22.5,30.29,SE,126,0.0,2.0,72,0.00,,,0.00,WeatherCatV1.10B1784,2013-03-27 03:37:00,
2013-03-26 22:42:00,30.5,22.6,30.28,SE,126,0.0,2.0,72,0.00,,,0.00,WeatherCatV1.10B1784,2013-03-27 03:42:00,
2013-03-26 22:47:00,30.5,22.6,30.29,ESE,113,0.0,4.0,72,0.00,,,0.00,WeatherCatV1.10B1784,2013-03-27 03:47:00,
2013-03-26 22:52:00,30.5,22.6,30.28,SE,128,0.0,5.0,72,0.00,,,0.00,WeatherCatV1.10B1784,2013-03-27 03:52:00,
2013-03-26 22:57:00,30.4,22.8,30.28,ESE,116,1.0,6.0,73,0.00,,,0.00,WeatherCatV1.10B1784,2013-03-27 03:57:00,
2013-03-26 23:00:00,30.4,22.8,30.28,ESE,120,3.0,5.0,73,0.00,,,0.00,WeatherCatV1.10B1784,2013-03-27 04:00:00,
2013-03-26 23:01:00,30.3,22.7,30.28,ESE,115,0.0,7.0,73,0.00,,,0.00,WeatherCatV1.10B1784,2013-03-27 04:01:00,
2013-03-26 23:06:00,30.2,22.9,30.28,SE,128,4.0,4.0,74,0.00,,,0.00,WeatherCatV1.10B1784,2013-03-27 04:06:00,
2013-03-26 23:11:00,30.1,23.2,30.29,ESE,118,0.0,2.0,75,0.00,,,0.00,WeatherCatV1.10B1784,2013-03-27 04:11:00,
2013-03-26 23:16:00,30.1,23.5,30.29,SE,126,0.0,2.0,76,0.00,,,0.00,WeatherCatV1.10B1784,2013-03-27 04:16:00,
2013-03-26 23:21:00,30.0,23.4,30.28,SE,124,0.0,3.0,76,0.00,,,0.00,WeatherCatV1.10B1784,2013-03-27 04:21:00,
2013-03-26 23:26:00,29.9,23.6,30.29,ESE,123,0.0,2.0,77,0.00,,,0.00,WeatherCatV1.10B1784,2013-03-27 04:26:00,
2013-03-26 23:31:00,29.8,23.5,30.29,SE,130,3.0,4.0,77,0.00,,,0.00,WeatherCatV1.10B1784,2013-03-27 04:31:00,
2013-03-26 23:36:00,29.7,23.4,30.29,SE,127,3.0,3.0,77,0.00,,,0.00,WeatherCatV1.10B1784,2013-03-27 04:36:00,
2013-03-26 23:41:00,29.6,23.6,30.29,ESE,109,0.0,3.0,78,0.00,,,0.00,WeatherCatV1.10B1784,2013-03-27 04:41:00,
2013-03-26 23:46:00,29.5,23.5,30.29,ESE,108,0.0,1.0,78,0.00,,,0.00,WeatherCatV1.10B1784,2013-03-27 04:46:00,
2013-03-26 23:51:00,29.4,23.4,30.29,SE,129,1.0,5.0,78,0.00,,,0.00,WeatherCatV1.10B1784,2013-03-27 04:51:00,
2013-03-26 23:56:00,29.4,23.7,30.29,ESE,121,3.0,3.0,79,0.00,,,0.00,WeatherCatV1.10B1784,2013-03-27 04:56:00,